Location: Newark
(52.3500°N, 175.9667°E)
Time: 02:48:48
(UTC+00:00)

S-56A Canister/Altair - Visible Passes

Search period start: 27 November 2022 00:00
Search period end: 07 December 2022 00:00
Orbit: 638 x 2494 km, 38.9° (Epoch: 26 November)

Date Brightness Start Highest point End Pass type
(mag) Time Alt. Az. Time Alt. Az. Time Alt. Az.
30 Nov 10.5 19:19:34 10° SSE 19:19:49 10° SSE 19:20:03 10° SSE visible
04 Dec 9.9 19:09:07 10° SSW 19:12:29 16° S 19:15:26 10° SE visible
05 Dec 9.9 18:36:18 10° SSW 18:39:59 17° S 18:43:07 10° SE visible
06 Dec 9.9 18:03:26 10° SSW 18:07:27 17° S 18:10:50 10° SE visible
